Regional Weather Roundup
Issued by NWS

Home | Current Version | Previous Version | Graphics & Text | Print | Product List | Glossary On
Versions: 1 2 3 4 5 6 7 8 9 10 11 12 13 14 15 16 17 18 19 20 21 22 23 24 25 26 27 28 29 30 31 32 33 34 35 36 37 38 39 40 41 42 43 44 45 46 47 48 49 50
651
ASUS43 KTOP 301459
RWRKS

WEATHER ROUNDUP FOR KANSAS
NATIONAL WEATHER SERVICE GOODLAND KS
1000 AM CDT SAT APR 30 2016

NOTE:  "FAIR" INDICATES FEW OR NO CLOUDS BELOW 12,000 FEET WITH NO
SIGNIFICANT WEATHER AND/OR OBSTRUCTIONS TO VISIBILITY.

KSZ001>006-013>018-027>032-041>047-301600-
NORTHWEST KANSAS

CITY           SKY/WX    TMP DP  RH WIND       PRES   REMARKS
GOODLAND       CLOUDY    33  32  96 NW16      29.81S FOG     WCI  23
HAYS           CLOUDY    46  37  71 NW15      29.76R
HILL CITY      CLOUDY    43  40  89 NW14      29.78R
RUSSELL        PTSUNNY   49  46  90 W12       29.73R
$$

KSZ061>065-074>080-084>089-301600-
SOUTHWEST KANSAS

CITY           SKY/WX    TMP DP  RH WIND       PRES   REMARKS
DODGE CITY     CLOUDY    42  36  79 NW16      29.81R
ELKHART          N/A     45  33  63 NW12        N/A
GARDEN CITY    PTSUNNY   42  36  79 NW20      29.81R
GREAT BEND     CLOUDY    45  37  76 W13G22    29.77R
LIBERAL        MOSUNNY   45  37  76 NW18      29.85R
$$

KSZ066>073-081>083-090>101-301600-
SOUTHEAST KANSAS

CITY           SKY/WX    TMP DP  RH WIND       PRES   REMARKS
CHANUTE        CLOUDY    59  54  83 W14       29.72R
COFFEYVILLE    CLOUDY    62  54  74 W10       29.74R
HUTCHINSON     CLOUDY    51  45  79 W14       29.75R
MEDICINE LODGE   N/A     47  41  80 W13       29.79F
NEWTON         CLOUDY    50  41  71 W15G22    29.75R
PARSONS        CLOUDY    60  55  83 W15       29.73R
WICHITA INTL   PTSUNNY   51  44  77 W15       29.76R
WICHITA JABRA  CLOUDY    51  45  79 W17       29.74R
WINFIELD       CLOUDY    52  46  80 NW15      29.77R
$$

KSZ007>012-019>026-033>040-048>060-102>105-301600-
NORTHEAST KANSAS

CITY           SKY/WX    TMP DP  RH WIND       PRES   REMARKS
CONCORDIA      CLOUDY    49  47  93 W6        29.69S FOG
EMPORIA        CLOUDY    54  50  86 W9        29.71R
LAWRENCE       PTSUNNY   63  57  81 SW10      29.65R
MANHATTAN      CLOUDY    53  49  86 SW10      29.69R
OLATHE IND     CLOUDY    63  60  90 S10       29.65S
OLATHE EXE     CLOUDY    63  60  90 SW10      29.65S
SALINA         PTSUNNY   54  49  83 W18       29.71R
TOPEKA BILLARD CLOUDY    58  54  86 W10       29.66R
TOPEKA FORBES  CLOUDY    58  53  84 W10       29.65R
$$




USA.gov is the U.S. government's official web portal to all federal, state and local government web resources and services.